Kankakee, IL

3:44 PM CST on December 12, 2019 (GMT -0600)
Greater Kankakee

Weather History for KIKK - October, 2019

Change the Weather History Date:

Wednesday, October 16, 2019

  Actual Average Record
Temperature  
Mean Temperature 46 °F -  
Max Temperature 53 °F 65 °F 81 °F (1989)
Min Temperature 38 °F 40 °F 25 °F (1991)
Degree Days  
Heating Degree Days 20    
Moisture  
Dew Point 36 °F    
Average Humidity 67    
Maximum Humidity 86    
Minimum Humidity 51    
Precipitation  
Precipitation 0.00 in - - ()
Sea Level Pressure  
Sea Level Pressure 29.94 in    
Wind  
Wind Speed 13 mph (WNW)    
Max Wind Speed 20 mph    
Max Gust Speed 29 mph    
Visibility 10 miles    
Events      
Averages and records for this station are not official NWS values.
T = Trace of Precipitation, MM = Missing Value Source: NWS Daily Summary

Daily Weather History Graph

Daily Weather History Graph

Search for Another Location

Airport or City:

Astronomy

Oct. 16, 2019 Rise Set
Actual Time 7:03 AM CDT 6:09 PM CDT
Civil Twilight 6:36 AM CDT 6:37 PM CDT
Nautical Twilight 6:04 AM CDT 7:09 PM CDT
Astronomical Twilight 5:32 AM CDT 7:40 PM CDT
Moon 8:01 PM CDT (10/16) 9:35 AM CDT (10/16)
Length of Visible Light 12h 01m
Length of Day
11h 05m
Waning Gibbous, 92% of the Moon is Illuminated
Oct 16
Waning Gibbous
Oct 21
Last Quarter
Oct 27
New
Nov 4
First Quarter
Nov 12
Full

Hourly Weather History & Observations

Time (CDT) Temp. Windchill Dew Point Humidity Pressure Visibility Wind Dir Wind Speed Gust Speed Precip Events Conditions
12:15 AM 46.0 °F 40.6 °F 37.9 °F 73% 29.85 in 10.0 mi West 11.5 mph - N/A   Clear
12:35 AM 45.5 °F 40.8 °F 38.3 °F 76% 29.85 in 10.0 mi West 9.2 mph - N/A   Clear
12:55 AM 44.6 °F 39.2 °F 38.3 °F 79% 29.85 in 10.0 mi West 10.4 mph - N/A   Clear
1:15 AM 44.4 °F 39.0 °F 38.3 °F 79% 29.85 in 10.0 mi West 10.4 mph - N/A   Clear
1:35 AM 45.5 °F 39.9 °F 38.5 °F 76% 29.85 in 10.0 mi WNW 11.5 mph - N/A   Clear
1:55 AM 44.8 °F 39.0 °F 38.7 °F 79% 29.85 in 10.0 mi West 11.5 mph - N/A   Clear
2:15 AM 43.9 °F 38.3 °F 39.2 °F 84% 29.86 in 10.0 mi West 10.4 mph - N/A   Scattered Clouds
2:35 AM 44.6 °F 38.8 °F 39.0 °F 81% 29.86 in 10.0 mi WNW 11.5 mph - N/A   Scattered Clouds
2:55 AM 44.8 °F 39.0 °F 37.9 °F 77% 29.86 in 10.0 mi WNW 11.5 mph 17.3 mph N/A   Clear
3:15 AM 44.6 °F 37.4 °F 37.0 °F 75% 29.85 in 10.0 mi WNW 16.1 mph 26.5 mph N/A   Clear
3:35 AM 44.2 °F 37.6 °F 36.0 °F 73% 29.85 in 10.0 mi WNW 13.8 mph 21.9 mph N/A   Scattered Clouds
3:55 AM 44.6 °F 37.4 °F 35.2 °F 70% 29.85 in 10.0 mi WNW 16.1 mph 24.2 mph N/A   Mostly Cloudy
4:15 AM 44.8 °F 38.3 °F 35.2 °F 69% 29.85 in 10.0 mi WNW 13.8 mph 25.3 mph N/A   Overcast
4:35 AM 45.0 °F 37.6 °F 35.1 °F 68% 29.86 in 10.0 mi WNW 17.3 mph 24.2 mph N/A   Overcast
4:55 AM 45.7 °F 38.6 °F 35.6 °F 68% 29.85 in 10.0 mi WNW 17.3 mph 26.5 mph N/A   Overcast
5:15 AM 45.9 °F 38.3 °F 35.2 °F 66% 29.86 in 10.0 mi WNW 19.6 mph 26.5 mph N/A   Overcast
5:35 AM 46.0 °F 39.6 °F 35.2 °F 66% 29.86 in 10.0 mi NW 15.0 mph 23.0 mph N/A   Overcast
5:55 AM 46.0 °F 40.6 °F 35.6 °F 67% 29.86 in 10.0 mi NW 11.5 mph 17.3 mph N/A   Overcast
6:15 AM 46.0 °F 39.9 °F 35.6 °F 67% 29.86 in 10.0 mi NW 13.8 mph 21.9 mph N/A   Overcast
6:35 AM 46.4 °F 40.7 °F 35.6 °F 66% 29.87 in 10.0 mi NW 12.7 mph 21.9 mph N/A   Overcast
6:55 AM 46.0 °F 39.3 °F 35.8 °F 67% 29.87 in 10.0 mi NW 16.1 mph 20.7 mph N/A   Overcast
7:15 AM 46.4 °F 40.1 °F 35.8 °F 67% 29.87 in 10.0 mi NW 15.0 mph 21.9 mph N/A   Overcast
7:35 AM 46.4 °F 39.5 °F 36.0 °F 67% 29.89 in 10.0 mi NW 17.3 mph 28.8 mph N/A   Overcast
7:55 AM 46.4 °F 40.4 °F 36.0 °F 67% 29.89 in 10.0 mi NW 13.8 mph 26.5 mph N/A   Overcast
8:15 AM 46.4 °F 40.1 °F 36.3 °F 68% 29.89 in 10.0 mi NW 15.0 mph 20.7 mph N/A   Overcast
8:35 AM 47.3 °F - 36.5 °F 66% 29.91 in 10.0 mi NW 17.3 mph 21.9 mph N/A   Mostly Cloudy
8:55 AM 46.9 °F - 36.7 °F 68% 29.91 in 10.0 mi NW 17.3 mph 23.0 mph N/A   Overcast
9:15 AM 46.9 °F - 36.5 °F 67% 29.92 in 10.0 mi NW 13.8 mph 23.0 mph N/A   Overcast
9:35 AM 47.3 °F - 36.9 °F 67% 29.92 in 10.0 mi NW 19.6 mph 23.0 mph N/A   Overcast
9:55 AM 47.8 °F - 36.3 °F 64% 29.93 in 10.0 mi NW 19.6 mph 27.6 mph N/A   Overcast
10:15 AM 48.2 °F - 36.1 °F 63% 29.93 in 10.0 mi NW 16.1 mph 23.0 mph N/A   Overcast
10:35 AM 48.7 °F - 36.3 °F 62% 29.93 in 10.0 mi NW 19.6 mph 27.6 mph N/A   Overcast
10:55 AM 49.5 °F - 36.1 °F 60% 29.94 in 10.0 mi NW 17.3 mph 28.8 mph N/A   Overcast
11:15 AM 49.6 °F - 36.3 °F 60% 29.95 in 10.0 mi NW 18.4 mph 28.8 mph N/A   Overcast
11:35 AM 50.2 °F - 36.0 °F 58% 29.95 in 10.0 mi NW 16.1 mph 26.5 mph N/A   Overcast
11:55 AM 50.0 °F - 35.8 °F 58% 29.96 in 10.0 mi NW 16.1 mph 27.6 mph N/A   Overcast
12:15 PM 50.0 °F - 36.0 °F 59% 29.97 in 10.0 mi WNW 17.3 mph 24.2 mph N/A   Overcast
12:35 PM 51.3 °F - 36.3 °F 57% 29.96 in 10.0 mi NNW 18.4 mph 25.3 mph N/A   Overcast
12:55 PM 51.3 °F - 35.6 °F 55% 29.96 in 10.0 mi NW 17.3 mph 24.2 mph N/A   Overcast
1:15 PM 50.9 °F - 35.8 °F 56% 29.96 in 10.0 mi NW 13.8 mph 23.0 mph N/A   Overcast
1:35 PM 50.9 °F - 35.8 °F 56% 29.96 in 10.0 mi NW 16.1 mph 23.0 mph N/A   Overcast
1:55 PM 51.6 °F - 35.8 °F 55% 29.97 in 10.0 mi NW 13.8 mph 20.7 mph N/A   Overcast
2:15 PM 51.6 °F - 35.1 °F 53% 29.97 in 10.0 mi NW 16.1 mph 24.2 mph N/A   Overcast
2:35 PM 52.0 °F - 35.6 °F 54% 29.97 in 10.0 mi NW 16.1 mph 24.2 mph N/A   Overcast
2:55 PM 52.3 °F - 34.7 °F 51% 29.97 in 10.0 mi NW 16.1 mph 21.9 mph N/A   Overcast
3:15 PM 52.0 °F - 35.4 °F 53% 29.97 in 10.0 mi NNW 18.4 mph 23.0 mph N/A   Overcast
3:35 PM 52.0 °F - 34.9 °F 52% 29.98 in 10.0 mi NW 13.8 mph 19.6 mph N/A   Overcast
3:55 PM 53.1 °F - 35.8 °F 52% 29.99 in 10.0 mi NW 12.7 mph 17.3 mph N/A   Overcast
4:15 PM 52.2 °F - 34.9 °F 52% 29.99 in 10.0 mi NW 8.1 mph - N/A   Overcast
4:35 PM 51.8 °F - 35.1 °F 53% 29.99 in 10.0 mi WNW 15.0 mph 18.4 mph N/A   Overcast
4:55 PM 52.0 °F - 35.6 °F 54% 29.99 in 10.0 mi NW 9.2 mph - N/A   Overcast
5:15 PM 51.8 °F - 35.8 °F 54% 30.00 in 10.0 mi NW 8.1 mph - N/A   Overcast
5:35 PM 51.6 °F - 35.2 °F 54% 30.00 in 10.0 mi NW 10.4 mph - N/A   Overcast
5:55 PM 51.1 °F - 35.1 °F 54% 30.00 in 10.0 mi NW 9.2 mph - N/A   Overcast
6:15 PM 50.0 °F - 35.6 °F 58% 30.01 in 10.0 mi NNW 6.9 mph - N/A   Overcast
6:35 PM 49.8 °F - 35.2 °F 57% 30.01 in 10.0 mi NNW 8.1 mph - N/A   Overcast
6:55 PM 47.7 °F - 35.6 °F 63% 30.02 in 10.0 mi NW 4.6 mph - N/A   Mostly Cloudy
7:15 PM 47.8 °F - 35.6 °F 63% 30.02 in 10.0 mi NW 3.5 mph - N/A   Overcast
7:35 PM 46.2 °F - 35.8 °F 67% 30.02 in 10.0 mi Calm Calm - N/A   Overcast
7:55 PM 46.8 °F - 34.9 °F 63% 30.02 in 10.0 mi West 3.5 mph - N/A   Mostly Cloudy
8:15 PM 42.8 °F 39.3 °F 35.2 °F 75% 30.02 in 10.0 mi West 5.8 mph - N/A   Scattered Clouds
8:35 PM 42.1 °F 38.4 °F 35.1 °F 76% 30.03 in 10.0 mi West 5.8 mph - N/A   Scattered Clouds
8:55 PM 41.0 °F 36.4 °F 35.1 °F 79% 30.04 in 10.0 mi West 6.9 mph - N/A   Scattered Clouds
9:15 PM 41.5 °F 37.1 °F 35.6 °F 79% 30.04 in 10.0 mi West 6.9 mph - N/A   Clear
9:35 PM 41.0 °F 36.4 °F 35.6 °F 81% 30.04 in 10.0 mi West 6.9 mph - N/A   Clear
9:55 PM 40.8 °F 36.2 °F 35.6 °F 82% 30.04 in 10.0 mi West 6.9 mph - N/A   Clear
10:15 PM 39.9 °F 35.1 °F 34.9 °F 82% 30.04 in 10.0 mi West 6.9 mph - N/A   Clear
10:35 PM 38.8 °F 33.8 °F 34.5 °F 84% 30.04 in 10.0 mi West 6.9 mph - N/A   Clear
10:55 PM 40.1 °F 34.7 °F 35.1 °F 82% 30.04 in 10.0 mi West 8.1 mph - N/A   Clear
11:15 PM 39.7 °F 33.7 °F 34.9 °F 83% 30.04 in 10.0 mi West 9.2 mph - N/A   Clear
11:35 PM 39.2 °F 33.6 °F 34.7 °F 84% 30.04 in 10.0 mi West 8.1 mph - N/A   Clear
11:55 PM 38.7 °F 33.6 °F 34.9 °F 86% 30.04 in 10.0 mi WNW 6.9 mph - N/A   Clear